Location: Exeidioux
(45.6312°N, 1.6819°E)
Time: 12:46:55
(UTC+00:00)

Okean-O - Pass Details

Date: 03 March 2021
Orbit: 638 x 640 km, 98.2° (Epoch: 11 April)

Event Time Altitude Azimuth Distance (km) Brightness Sun altitude
Rises 18:21:27 0° 158° (SSE) 2,933 5.8 -7.5°
Reaches altitude 10° 18:23:39 10° 155° (SSE) 2,028 5.0 -7.9°
Maximum altitude 18:28:02 68° 74° (ENE) 695 2.6 -8.7°
Drops below altitude 10° 18:32:28 10° 352° (N) 2,044 5.3 -9.4°
Sets 18:34:41 0° 349° (N) 2,957 6.2 -9.8°
